Date String (YYYY-MM-DD hh:mm:ss) UTC,Instrument flags,absolute air pressure of the measurement (hPa),sample flow rate (lpm),inlet stack bypass flow (lpm),air temperature of the measurement (°C),ambient temperature measured by the external sensor (°C),aerosol sample conditioner tube jacket temperature (°C),OPC LED temperature (°C),internal box temperature (°C),relative humidity of the measurement (%),span deviation,mass concentration of particles derived from Lorenz-Mie calculation of OPC scattering (μg/m³),mass concentration of particles derived from Lorenz-Mie calculation of OPC scattering (μg/m³),mass concentration of particles derived from Lorenz-Mie calculation of OPC scattering (μg/m³)
DateTimeUTC,F1_M11,P_M11,Q1_M11,Q2_M11,T1_M11,T2_M11,T3_M11,T4_M11,T5_M11,U1_M11,ZSPAN_M11,X0_M11,X2_M11,X1_M11
2024-06-09 18:00:00,SystemResetWarning,0833.2,5.00,000.00,030.2,029.7,000.0,038.2,031.9,034.7,0000.1,0021.67,0015.03,0013.78
2024-06-09 18:01:00,SystemResetWarning,0833.2,5.00,000.00,030.0,027.9,000.0,038.3,031.0,035.3,0000.3,0021.40,0015.04,0013.77
2024-06-09 18:02:00,SystemResetWarning,0833.2,5.00,000.00,029.5,026.2,000.0,038.3,030.2,035.9,0000.6,0022.09,0014.96,0013.71
2024-06-09 18:03:00,SystemResetWarning,0833.1,5.01,000.00,029.3,026.0,000.0,038.3,030.0,036.2,0000.8,0022.88,0014.95,0013.71
2024-06-09 18:04:00,SystemResetWarning,0833.2,5.01,000.00,029.2,026.4,000.0,038.1,030.2,036.6,0000.7,0022.95,0014.98,0013.75
2024-06-09 18:05:00,SystemResetWarning,0833.2,4.99,000.00,029.2,026.9,000.0,038.0,030.5,036.4,0000.5,0023.14,0015.03,0013.82
2024-06-09 18:06:00,SystemResetWarning,0833.2,5.00,000.00,029.2,027.3,000.0,037.9,030.7,036.1,0000.3,0023.35,0015.15,0013.93
2024-06-09 18:07:00,SystemResetWarning,0833.2,5.02,000.00,029.2,027.7,000.0,037.9,030.8,036.0,0000.2,0023.42,0015.28,0014.04
2024-06-09 18:08:00,SystemResetWarning,0833.2,5.00,000.00,029.3,028.1,000.0,037.9,031.0,036.0,0000.1,0023.59,0015.42,0014.16
2024-06-09 18:09:00,SystemResetWarning,0833.2,4.98,000.00,029.4,028.4,000.0,037.8,031.1,036.6,0000.2,0023.79,0015.48,0014.20
2024-06-09 18:10:00,SystemResetWarning,0833.2,5.01,000.00,029.4,028.6,000.0,037.8,031.3,036.1,-000.1,0023.72,0015.40,0014.12
2024-06-09 18:11:00,SystemResetWarning,0833.2,5.01,000.00,029.5,028.8,000.0,037.8,031.4,035.9,-000.3,0023.46,0015.34,0014.05
2024-06-09 18:12:00,SystemResetWarning,0833.2,4.99,000.00,029.6,029.0,000.0,037.9,031.4,036.0,-000.3,0022.87,0015.24,0014.02
2024-06-09 18:13:00,SystemResetWarning,0833.2,4.99,000.00,029.7,029.1,000.0,037.9,031.5,036.5,0000.0,0022.14,0015.22,0014.00
2024-06-09 18:14:00,SystemResetWarning,0833.2,5.01,000.00,029.7,029.3,000.0,037.9,031.6,036.8,-000.0,0021.15,0015.08,0013.83
2024-06-09 18:15:00,SystemResetWarning,0833.2,5.01,000.00,029.8,029.4,000.0,038.0,031.7,036.0,0000.1,0021.09,0014.82,0013.59
2024-06-09 18:16:00,SystemResetWarning,0833.2,4.99,000.00,029.9,029.5,000.0,038.0,031.8,035.4,0000.7,0020.89,0014.63,0013.38
2024-06-09 18:17:00,SystemResetWarning,0833.1,4.99,000.00,029.9,029.6,000.0,038.0,031.8,035.2,0000.8,0020.73,0014.43,0013.20
2024-06-09 18:18:00,SystemResetWarning,0833.2,5.00,000.00,030.0,029.7,000.0,038.1,031.9,035.4,0000.7,0020.52,0014.29,0013.09
2024-06-09 18:19:00,SystemResetWarning,0833.2,4.99,000.00,030.0,029.2,000.0,038.1,031.7,035.0,0000.6,0021.08,0014.22,0013.00
2024-06-09 18:20:00,SystemResetWarning,0833.2,5.00,000.00,029.7,027.1,000.0,038.2,030.7,035.4,0000.7,0020.65,0014.22,0012.99
2024-06-09 18:21:00,SystemResetWarning,0833.1,5.01,000.00,029.4,026.0,000.0,038.2,030.1,036.2,0001.1,0021.80,0014.34,0013.11
2024-06-09 18:22:00,SystemResetWarning,0833.1,5.02,000.00,029.2,026.1,000.0,038.1,030.1,036.7,0001.0,0022.21,0014.41,0013.24
2024-06-09 18:23:00,SystemResetWarning,0833.1,5.00,000.00,029.1,026.6,000.0,038.0,030.3,037.0,0000.8,0022.53,0014.61,0013.39
2024-06-09 18:24:00,SystemResetWarning,0833.1,4.98,000.00,029.1,027.0,000.0,037.9,030.6,037.2,0000.4,0022.67,0014.75,0013.52
2024-06-09 18:25:00,SystemResetWarning,0833.1,5.00,000.00,029.2,027.5,000.0,037.8,030.8,037.0,0000.6,0022.84,0014.92,0013.69
2024-06-09 18:26:00,SystemResetWarning,0833.2,5.01,000.00,029.2,027.9,000.0,037.8,030.9,036.7,0000.6,0023.43,0015.19,0013.93
2024-06-09 18:27:00,SystemResetWarning,0833.1,4.99,000.00,029.3,028.2,000.0,037.8,031.0,036.7,-000.0,0023.65,0015.40,0014.16
2024-06-09 18:28:00,SystemResetWarning,0833.1,5.00,000.00,029.4,028.4,000.0,037.8,031.1,036.4,-000.0,0023.71,0015.53,0014.31
2024-06-09 18:29:00,SystemResetWarning,0833.1,5.00,000.00,029.4,028.7,000.0,037.8,031.2,036.3,-000.0,0023.86,0015.66,0014.45
2024-06-09 18:30:00,SystemResetWarning,0833.2,5.00,000.00,029.5,028.8,000.0,037.8,031.3,036.5,0000.6,0023.74,0015.77,0014.61
2024-06-09 18:31:00,SystemResetWarning,0833.2,5.00,000.00,029.6,029.0,000.0,037.8,031.4,036.6,0000.9,0023.13,0015.83,0014.67
2024-06-09 18:32:00,SystemResetWarning,0833.2,5.00,000.00,029.6,029.1,000.0,037.8,031.5,035.8,0000.8,0022.83,0015.81,0014.62
2024-06-09 18:33:00,SystemResetWarning,0833.2,5.01,000.00,029.7,029.3,000.0,037.9,031.6,035.7,0000.9,0022.61,0015.83,0014.61
2024-06-09 18:34:00,SystemResetWarning,0833.2,5.01,000.00,029.8,029.4,000.0,037.9,031.7,035.9,0001.4,0022.55,0015.76,0014.54
2024-06-09 18:35:00,SystemResetWarning,0833.2,5.00,000.00,029.9,029.5,000.0,037.9,031.7,035.2,0001.9,0022.71,0015.74,0014.48
2024-06-09 18:36:00,SystemResetWarning,0833.2,5.00,000.00,029.9,029.6,000.0,038.0,031.8,035.7,0001.6,0022.93,0015.72,0014.47
2024-06-09 18:37:00,SystemResetWarning,0833.2,5.00,000.00,030.0,029.7,000.0,038.0,031.9,035.9,0001.7,0022.51,0015.64,0014.38
2024-06-09 18:38:00,SystemResetWarning,0833.2,5.00,000.00,030.0,029.5,000.0,038.1,031.8,035.3,0002.0,0022.30,0015.51,0014.25
2024-06-09 18:39:00,SystemResetWarning,0833.1,4.99,000.00,029.8,027.6,000.0,038.2,030.9,036.3,0002.1,0022.68,0015.45,0014.21
2024-06-09 18:40:00,SystemResetWarning,0833.4,5.00,000.00,029.4,026.1,000.0,038.2,030.2,037.3,0002.1,0023.05,0015.37,0014.12
2024-06-09 18:41:00,SystemResetWarning,0833.1,5.02,000.00,029.2,026.1,000.0,038.1,030.1,037.3,0001.8,0022.37,0015.30,0014.04
2024-06-09 18:42:00,SystemResetWarning,0833.2,4.99,000.00,029.1,026.5,000.0,038.0,030.3,037.2,0001.5,0022.29,0015.30,0014.05
2024-06-09 18:43:00,SystemResetWarning,0833.1,4.99,000.00,029.1,027.0,000.0,037.9,030.5,037.7,0001.5,0021.59,0015.29,0014.10
2024-06-09 18:44:00,SystemResetWarning,0833.5,5.00,000.00,029.2,027.4,000.0,037.8,030.7,037.2,0001.4,0021.38,0015.22,0014.07
2024-06-09 18:45:00,SystemResetWarning,0833.4,5.00,000.00,029.2,027.8,000.0,037.8,030.9,037.2,0001.1,0021.75,0015.23,0014.10
2024-06-09 18:46:00,SystemResetWarning,0833.4,5.01,000.00,029.3,028.1,000.0,037.8,031.0,037.4,0001.0,0022.12,0015.22,0014.14
2024-06-09 18:47:00,SystemResetWarning,0833.3,5.01,000.00,029.3,028.4,000.0,037.8,031.1,037.2,0001.1,0022.23,0015.20,0014.09
2024-06-09 18:48:00,SystemResetWarning,0833.3,4.99,000.00,029.4,028.6,000.0,037.8,031.3,037.0,0000.7,0021.89,0015.22,0014.12
2024-06-09 18:49:00,SystemResetWarning,0833.2,4.99,000.00,029.5,028.9,000.0,037.8,031.4,037.0,0000.4,0023.20,0015.30,0014.20
2024-06-09 18:50:00,SystemResetWarning,0833.1,4.99,000.00,029.6,029.0,000.0,037.8,031.4,037.1,0000.2,0023.05,0015.31,0014.17
2024-06-09 18:51:00,SystemResetWarning,0833.0,5.00,000.00,029.7,029.2,000.0,037.8,031.5,036.0,0000.5,0022.50,0015.32,0014.14
2024-06-09 18:52:00,SystemResetWarning,0833.0,5.01,000.00,029.7,029.3,000.0,037.9,031.6,036.1,0000.8,0023.03,0015.42,0014.20
2024-06-09 18:53:00,SystemResetWarning,0833.0,5.01,000.00,029.8,029.4,000.0,037.9,031.7,035.8,0000.5,0024.12,0015.42,0014.16
2024-06-09 18:54:00,SystemResetWarning,0833.2,5.00,000.00,029.9,029.5,000.0,037.9,031.8,035.5,0000.5,0024.64,0015.40,0014.13
2024-06-09 18:55:00,SystemResetWarning,0833.2,5.01,000.00,029.9,029.4,000.0,038.0,031.7,035.3,0000.4,0024.70,0015.48,0014.16
2024-06-09 18:56:00,SystemResetWarning,0832.9,4.98,000.00,029.7,027.7,000.0,038.1,030.8,035.8,0000.8,0024.05,0015.53,0014.17
2024-06-09 18:57:00,SystemResetWarning,0833.0,5.01,000.00,029.3,026.1,000.0,038.1,030.0,036.7,0000.6,0023.83,0015.60,0014.18
2024-06-09 18:58:00,SystemResetWarning,0833.4,5.01,000.00,029.1,026.0,000.0,038.0,029.9,038.1,0000.5,0023.33,0015.62,0014.23
2024-06-09 18:59:00,SystemResetWarning,0833.4,4.99,000.00,029.0,026.4,000.0,037.9,030.1,038.4,0000.7,0023.72,0015.58,0014.23
